Langdon, ND

9:15 AM CDT on October 23, 2017 (GMT -0500)
Langdon

Weather History for KD55 - March, 2014

Change the Weather History Date:

Saturday, March 8, 2014

  Actual Average (KDVL) Record (KDVL)
Temperature  
Mean Temperature 8 °F -  
Max Temperature 26 °F 30 °F 55 °F (1977)
Min Temperature -9 °F 11 °F -22 °F (2003)
Degree Days  
Heating Degree Days 56    
Moisture  
Dew Point 8 °F    
Average Humidity 83    
Maximum Humidity 93    
Minimum Humidity 68    
Precipitation  
Precipitation 0.00 in - - ()
Sea Level Pressure  
Sea Level Pressure 30.08 in    
Wind  
Wind Speed 10 mph (SSW)    
Max Wind Speed 23 mph    
Max Gust Speed 28 mph    
Visibility 10 miles    
Events      
Averages and records for this station are not official NWS values.
T = Trace of Precipitation, MM = Missing Value Source: NWS Daily Summary

Daily Weather History Graph

Daily Weather History Graph

Search for Another Location

Airport or City:

Trip Planner

Search our weather history database for the weather conditions in past years. The results will help you decide how hot, cold, wet, or windy it might be!

Date:

Astronomy

Mar. 08, 2014 Rise Set
Actual Time 7:01 AM CST 6:28 PM CST
Civil Twilight 6:29 AM CST 6:59 PM CST
Nautical Twilight 5:53 AM CST 7:36 PM CST
Astronomical Twilight 5:16 AM CST 8:13 PM CST
Moon 11:12 AM CST (3/8) 1:58 AM CST (3/8)
Length of Visible Light 12h 29m
Length of Day
11h 27m
First Quarter, 52% of the Moon is Illuminated
Mar 8
First Quarter
Mar 16
Full
Mar 23
Last Quarter
Mar 30
New
Apr 7
First Quarter

Hourly Weather History & Observations

Time (CST) Temp. Windchill Dew Point Humidity Pressure Visibility Wind Dir Wind Speed Gust Speed Precip Events Conditions
12:35 AM -7.6 °F -16.5 °F -11.2 °F 84% 30.26 in 10.0 mi West 3.5 mph - N/A   Clear
12:55 AM -7.6 °F - -11.2 °F 84% 30.27 in 10.0 mi Calm Calm - N/A   Clear
1:15 AM -7.6 °F - -11.2 °F 84% 30.26 in 10.0 mi Calm Calm - N/A   Clear
1:35 AM -9.4 °F - -14.8 °F 77% 30.27 in 10.0 mi Calm Calm - N/A   Clear
1:55 AM -9.4 °F -18.6 °F -14.8 °F 77% 30.26 in 10.0 mi SW 3.5 mph - N/A   Clear
2:15 AM -9.4 °F - -14.8 °F 77% 30.27 in 10.0 mi Calm Calm - N/A   Clear
2:35 AM -7.6 °F -16.5 °F -13.0 °F 77% 30.26 in 10.0 mi SW 3.5 mph - N/A   Clear
2:55 AM -9.4 °F -20.9 °F -13.0 °F 84% 30.26 in 10.0 mi SW 4.6 mph - N/A   Scattered Clouds
3:15 AM -5.8 °F -18.4 °F -11.2 °F 77% 30.25 in 10.0 mi SSW 5.8 mph - N/A   Overcast
3:35 AM -7.6 °F -22.1 °F -11.2 °F 84% 30.23 in 10.0 mi SSW 6.9 mph - N/A   Mostly Cloudy
3:55 AM -7.6 °F -20.6 °F -13.0 °F 77% 30.23 in 10.0 mi SSW 5.8 mph - N/A   Clear
4:15 AM -7.6 °F -18.8 °F -13.0 °F 77% 30.23 in 10.0 mi SSW 4.6 mph - N/A   Clear
4:35 AM -7.6 °F - -11.2 °F 84% 30.23 in 10.0 mi Calm Calm - N/A   Clear
4:55 AM -7.6 °F -22.1 °F - N/A% 30.23 in 10.0 mi South 6.9 mph - N/A   Clear
5:15 AM -7.6 °F -20.6 °F -11.2 °F 84% 30.23 in 10.0 mi SSW 5.8 mph - N/A   Clear
5:35 AM -7.6 °F -20.6 °F -13.0 °F 77% 30.23 in 10.0 mi SSW 5.8 mph - N/A   Clear
5:55 AM -9.4 °F -24.3 °F -13.0 °F 84% 30.24 in 10.0 mi SSW 6.9 mph - N/A   Clear
6:15 AM -9.4 °F -22.7 °F -14.8 °F 77% 30.24 in 10.0 mi South 5.8 mph - N/A   Clear
6:35 AM -9.4 °F -26.8 °F -13.0 °F 84% 30.23 in 10.0 mi SSW 9.2 mph - N/A   Clear
6:55 AM -7.6 °F -23.4 °F - N/A% 30.22 in 10.0 mi South 8.1 mph - N/A   Clear
7:15 AM -7.6 °F -25.7 °F -11.2 °F 84% 30.22 in 10.0 mi SSW 10.4 mph - N/A   Clear
7:35 AM -5.8 °F -26.0 °F -11.2 °F 77% 30.21 in 10.0 mi SSW 13.8 mph - N/A   Clear
7:55 AM -2.2 °F -19.9 °F -7.6 °F 78% 30.21 in 10.0 mi SSW 11.5 mph - N/A   Clear
8:15 AM -0.4 °F -16.7 °F -5.8 °F 78% 30.21 in 10.0 mi SSW 10.4 mph - N/A   Clear
8:35 AM -0.4 °F -17.6 °F -4.0 °F 85% 30.21 in 10.0 mi SSW 11.5 mph - N/A   Clear
8:55 AM 1.4 °F -15.3 °F -0.4 °F 92% 30.20 in 10.0 mi SSW 11.5 mph - N/A   Clear
9:15 AM 5.0 °F -11.6 °F 1.4 °F 85% 30.19 in 10.0 mi SSW 12.7 mph - N/A   Clear
9:35 AM 6.8 °F -10.0 °F 3.2 °F 85% 30.18 in 10.0 mi SSW 13.8 mph - N/A   Clear
9:55 AM 8.6 °F -8.3 °F 5.0 °F 85% 30.17 in 10.0 mi SSW 15.0 mph - N/A   Clear
10:15 AM 10.4 °F -4.8 °F 6.8 °F 85% 30.17 in 10.0 mi SSW 12.7 mph - N/A   Partly Cloudy
10:35 AM 12.2 °F -1.8 °F 8.6 °F 85% 30.17 in 10.0 mi SSW 11.5 mph - N/A   Mostly Cloudy
10:55 AM 15.8 °F -0.2 °F 10.4 °F 79% 30.16 in 10.0 mi SSW 17.3 mph - N/A   Overcast
11:15 AM 15.8 °F -0.2 °F 12.2 °F 86% 30.17 in 10.0 mi SSW 17.3 mph - N/A   Overcast
11:35 AM 17.6 °F 2.7 °F 12.2 °F 79% 30.16 in 10.0 mi SW 16.1 mph - N/A   Overcast
11:55 AM 17.6 °F 2.7 °F 12.2 °F 79% 30.15 in 10.0 mi SSW 16.1 mph - N/A   Overcast
12:15 PM 19.4 °F 4.1 °F 14.0 °F 80% 30.14 in 10.0 mi SW 18.4 mph - N/A   Overcast
12:35 PM 19.4 °F 4.5 °F 14.0 °F 80% 30.13 in 10.0 mi SW 17.3 mph - N/A   Overcast
12:55 PM 21.2 °F 6.8 °F 14.0 °F 74% 30.12 in 10.0 mi SSW 17.3 mph - N/A   Overcast
1:15 PM 23.0 °F 8.7 °F 14.0 °F 68% 30.11 in 10.0 mi SW 18.4 mph - N/A   Overcast
1:35 PM 23.0 °F 8.7 °F 15.8 °F 74% 30.09 in 10.0 mi SSW 18.4 mph - N/A   Mostly Cloudy
1:55 PM 23.0 °F 8.7 °F 15.8 °F 74% 30.08 in 10.0 mi SSW 18.4 mph - N/A   Mostly Cloudy
2:15 PM 24.8 °F 11.5 °F 17.6 °F 74% 30.07 in 10.0 mi SSW 17.3 mph - N/A   Mostly Cloudy
2:35 PM 24.8 °F 11.1 °F 17.6 °F 74% 30.05 in 10.0 mi SSW 18.4 mph 23.0 mph N/A   Mostly Cloudy
2:55 PM 24.8 °F 11.1 °F 19.4 °F 80% 30.04 in 10.0 mi SSW 18.4 mph - N/A   Mostly Cloudy
3:15 PM 24.8 °F 11.1 °F 19.4 °F 80% 30.03 in 10.0 mi SSW 18.4 mph - N/A   Scattered Clouds
3:35 PM 26.6 °F 13.8 °F 19.4 °F 74% 30.03 in 10.0 mi SSW 17.3 mph - N/A   Scattered Clouds
3:55 PM 26.6 °F 12.7 °F 21.2 °F 80% 30.02 in 10.0 mi SSW 20.7 mph - N/A   Mostly Cloudy
4:15 PM 26.6 °F 13.4 °F 23.0 °F 86% 30.00 in 10.0 mi SSW 18.4 mph - N/A   Mostly Cloudy
4:35 PM 26.6 °F 12.7 °F 23.0 °F 86% 29.99 in 10.0 mi SSW 20.7 mph - N/A   Overcast
4:55 PM 26.6 °F 13.1 °F 23.0 °F 86% 29.98 in 10.0 mi SSW 19.6 mph - N/A   Overcast
5:15 PM 26.6 °F 13.8 °F 23.0 °F 86% 29.97 in 10.0 mi SSW 17.3 mph - N/A   Overcast
5:35 PM 26.6 °F 12.4 °F 23.0 °F 86% 29.96 in 10.0 mi SSW 21.9 mph - N/A   Overcast
5:55 PM 26.6 °F 13.1 °F 23.0 °F 86% 29.94 in 10.0 mi SSW 19.6 mph 24.2 mph N/A   Mostly Cloudy
6:15 PM 26.6 °F 13.1 °F 23.0 °F 86% 29.93 in 10.0 mi SSW 19.6 mph - N/A   Partly Cloudy
6:35 PM 24.8 °F 10.7 °F 23.0 °F 93% 29.91 in 10.0 mi SSW 19.6 mph - N/A   Clear
6:55 PM 24.8 °F 11.1 °F 23.0 °F 93% 29.90 in 10.0 mi SSW 18.4 mph - N/A   Clear
7:15 PM 24.8 °F 11.9 °F 21.2 °F 86% 29.89 in 10.0 mi SSW 16.1 mph - N/A   Clear
7:35 PM 24.8 °F 10.7 °F 21.2 °F 86% 29.89 in 10.0 mi SSW 19.6 mph - N/A   Clear
7:55 PM 23.0 °F 8.3 °F 21.2 °F 93% 29.88 in 10.0 mi SSW 19.6 mph - N/A   Clear
8:15 PM 24.8 °F 10.0 °F 21.2 °F 86% 29.87 in 8.0 mi SSW 21.9 mph - N/A   Clear
8:35 PM 24.8 °F 10.7 °F 21.2 °F 86% 29.87 in 10.0 mi SSW 19.6 mph - N/A   Clear
8:55 PM 24.8 °F 10.0 °F 23.0 °F 93% 29.84 in 7.0 mi SSW 21.9 mph - N/A   Clear
9:15 PM 24.8 °F 9.6 °F 23.0 °F 93% 29.82 in 7.0 mi SSW 23.0 mph - N/A   Clear
9:35 PM 24.8 °F 10.0 °F 23.0 °F 93% 29.81 in 6.0 mi SSW 21.9 mph - N/A   Clear
9:55 PM 24.8 °F 10.0 °F 23.0 °F 93% 29.80 in 7.0 mi SSW 21.9 mph - N/A   Clear
10:15 PM 26.6 °F 12.4 °F 23.0 °F 86% 29.79 in 7.0 mi SSW 21.9 mph - N/A   Clear
10:35 PM 26.6 °F 12.4 °F 24.8 °F 93% 29.78 in 7.0 mi SSW 21.9 mph 27.6 mph N/A   Clear
10:55 PM 26.6 °F 12.7 °F 23.0 °F 86% 29.76 in 9.0 mi SSW 20.7 mph - N/A   Clear
11:15 PM 26.6 °F 13.4 °F 24.8 °F 93% 29.75 in 10.0 mi SSW 18.4 mph - N/A   Clear
11:35 PM 26.6 °F 13.1 °F 23.0 °F 86% 29.73 in 9.0 mi SSW 19.6 mph - N/A   Clear
11:55 PM 24.8 °F 11.5 °F 23.0 °F 93% 29.72 in 10.0 mi SSW 17.3 mph - N/A   Clear